JOTAC Weather Reports


time (UTC)temp
F
wind
direction
speed
knots
gust
knots
rain 1hr
in
rain 24hr
in
rain mn
in
humidity
%
barometer
mb
20260504044529 43 296 0.9 2.6 0.00 0.03 0.00 88 1012.2
20260504043029 44 346 1.7 4.3 0.00 0.03 0.00 89 1012.3
20260504041541 44 332 0.0 1.7 0.00 0.03 0.00 89 1012.3
20260504040034 44 303 0.9 1.7 0.00 0.03 0.00 89 1012.5
20260504034534 44 303 0.0 1.7 0.00 0.03 0.00 89 1012.6
20260504033031 44 0 0.0 1.7 0.00 0.03 0.00 88 1012.5
20260504031533 44 0 0.0 1.7 0.00 0.03 0.00 89 1012.6
20260504030034 44 303 0.0 1.7 0.00 0.03 0.00 88 1012.7
20260504024531 45 0 0.0 1.7 0.00 0.03 0.00 88 1012.7
20260504023030 45 0 0.0 2.6 0.00 0.03 0.00 87 1012.6
20260504021530 45 303 0.9 2.6 0.00 0.03 0.00 86 1012.7
20260504020037 45 318 0.0 2.6 0.00 0.03 0.00 87 1012.7
20260504014532 46 333 0.9 4.3 0.00 0.04 0.00 85 1012.5
20260504013042 46 340 0.0 3.5 0.00 0.04 0.00 84 1012.6
20260504011530 46 360 0.9 2.6 0.00 0.04 0.00 84 1012.8
20260504010029 46 0 0.0 1.7 0.00 0.04 0.00 86 1012.9
20260504004532 47 0 0.0 2.6 0.00 0.04 0.00 87 1012.9
20260504003031 47 0 0.0 3.5 0.00 0.04 0.00 87 1012.9
20260504001750 47 0 0.0 1.7 0.00 0.04 0.00 87 1012.9
20260504000030 47 0 0.0 1.7 0.00 0.04 0.00 86 1013.0
20260503234532 47 0 0.0 1.7 0.00 0.04 0.00 87 1013.0
20260503233030 47 0 0.0 3.5 0.00 0.04 0.00 87 1013.1
20260503231531 47 0 0.0 1.7 0.00 0.04 0.00 87 1013.0
20260503230039 47 0 0.0 1.7 0.00 0.03 0.00 86 1013.1
20260503224530 47 340 0.0 2.6 0.00 0.03 0.00 86 1013.2
20260503223028 48 0 0.0 1.7 0.00 0.03 0.00 86 1013.2
20260503221533 48 309 0.0 2.6 0.00 0.03 0.00 87 1013.2
20260503220030 48 0 0.0 2.6 0.00 0.03 0.00 85 1013.2
20260503214538 48 0 0.9 3.5 0.00 0.03 0.03 83 1013.0
20260503213031 48 0 0.0 1.7 0.00 0.03 0.03 84 1013.1
20260503211530 48 0 0.0 0.0 0.01 0.03 0.03 86 1013.1
20260503210030 49 0 0.0 1.7 0.02 0.03 0.03 86 1012.9
20260503204532 49 0 0.0 2.6 0.02 0.03 0.03 86 1012.6
20260503203035 49 0 0.0 1.7 0.02 0.03 0.03 85 1012.5
20260503201532 50 0 0.9 6.1 0.00 0.02 0.02 83 1012.4
20260503200032 51 273 1.7 6.1 0.00 0.01 0.01 79 1012.4
20260503194529 51 0 0.0 1.7 0.00 0.01 0.01 76 1012.2
20260503193043 51 0 0.0 1.7 0.00 0.01 0.01 75 1012.0
20260503191559 52 300 0.9 3.5 0.00 0.01 0.01 74 1011.9
20260503190034 52 317 0.9 3.5 0.00 0.01 0.01 73 1011.7
20260503184536 52 290 2.6 6.1 0.00 0.01 0.01 73 1011.5
20260503183031 53 321 0.0 4.3 0.00 0.01 0.01 75 1011.6
20260503181544 53 311 1.7 4.3 0.00 0.01 0.01 74 1011.5
20260503180033 53 308 1.7 5.2 0.00 0.01 0.01 74 1011.5
20260503174534 53 311 2.6 7.8 0.00 0.01 0.01 75 1011.4
20260503173030 54 333 4.3 8.7 0.00 0.01 0.01 72 1011.4
20260503171531 53 305 3.5 9.6 0.00 0.01 0.01 71 1011.4
20260503081539 51 206 2.6 6.1 0.00 0.11 0.01 84 1014.2
20260503071530 49 219 0.0 1.7 0.00 0.13 0.01 92 1014.2